sat.trackr.live / text

‹ back to catalog

STARLINK-33897

NORAD 63865 · 2025-094B

PAYLOAD ACTIVE UNKNOWN

§ Identity

Operator
Country
US
Launch date
2025-05-10
Launch site
AFWTR
Launch vehicle
Mass (kg)
RCS (m²)

Purposes: comms

External: N2YO · Heavens-Above · Gunter

§ Orbital elements

Epoch: 2026-09-20T14:15:49.152960Z

Period
94.14 min
Inclination
69.9987°
Eccentricity
0.0003613
Mean motion
15.29629645 rev/d
Perigee alt
474.4 km
Apogee alt
479.4 km
Semi-major
6,855.1 km
B*
8.5770e-4
RAAN
100.8181°
Arg perigee
277.1009°
Mean anomaly
82.9755°
Rev number
7,667

§ Raw data

STARLINK-338971 63865U 25094B   26263.59431890  .00024648  00000+0  85770-3 0  99992 63865  69.9987 100.8181 0003613 277.1009  82.9755 15.29629645 76677

JSON: /api/v1/satellites/63865 · /tle

For live sub-satellite position, see the globe view (requires WebGL).

§ Visibility from observer

Set your observer location to see the next 7 days of passes ≥ 10°. The values pass through the URL so the page stays shareable.

No JS? Fill the form by hand. The geolocation button needs JavaScript.